Reflectivity
14 10 10 3 -20 0 -20 -20 -13 -3 23 6 23 -20 -20 -9 -16 -10 -20 -14 11 10 -3 -9 9 -2 14 13 17 5 1 -5 2 -7 -20 -20 -20 -20 -20 -20 -20 -20 -20 -20
19 2 5 -5 -1 -15 -20 -15 15 -9 3 -2 -20 -20 -20 -20 -20 -20 -2 2 12 -5 10 -5 -4 5 15 7 1 -6 -8 -20 -20 -20 -20 -20 -20 -20 -20 -20 -20 -20 -20 -20
13 4 4 -20 6 -20 -19 -20 1 22 -3 17 -12 -20 -20 -20 -20 -4 -3 -17 11 1 -8 -18 -20 -20 -5 4 -2 -13 -20 -20 -12 -9 -16 -20 -20 -20 -20 -20 -20 -20 -20 -20
14 -20 -8 -20 -20 -20 -14 -20 -20 -16 -20 -20 -20 -20 -20 -20 -19 -1 -20 -12 -6 4 -12 1 -9 -20 -20 -20 -20 -20 -20 -19 -19 -20 -20 -20 -20 -20 -20 -20 -20 -20 -20 -20
-20 -20 -1 -20 -20 -20 -19 -20 -20 -20 -20 -16 -20 -20 -20 -20 -20 -11 -4 -20 -15 -17 -10 -20 -20 -20 -20 -20 -20 -20 -20 -20 -20 -20 -20 -20 -20 -20 -20 -20 -20 -20 -20 -20
-13 -20 -19 -20 -20 -20 2 -20 -20 -20 -20 -20 -17 -20 -20 -20 6 -3 -20 -20 -20 -20 -20 -20 -20 -20 -20 -20 -20 -20 -20 -20 -20 -20 -20 -20 -20 -20 -20 -20 -20 -13 -1 -16
12 -18 -5 -20 -20 -20 -7 -20 -20 -20 -20 -20 -20 -20 -13 -20 -20 -20 -20 -20 -20 -20 -20 -20 -20 -20 -20 -20 -20 -20 -20 -20 -20 -20 -20 -20 -11 -20 -15 -15 4 -20 -12 5
-20 -18 -5 -20 -20 17 -6 -20 -20 -20 -20 -20 -20 -20 -20 -20 -20 -20 -20 -20 -20 -20 -20 -20 -20 -20 -20 -20 -20 -20 -20 -20 -20 -20 -20 -20 -1 -18 -15 -0 -2 -17 -18 9
-20 -15 -20 -20 -20 -18 -20 8 -17 -20 -20 -20 -20 -20 -20 -20 -20 -20 -20 -20 -20 -20 -20 -20 -20 -20 -20 -20 -20 -20 -20 -20 -20 -6 -20 -20 -20 -20 -20 -3 -17 -20 -19 -13
-20 -20 -20 -20 -19 -3 -7 -20 -20 -20 -20 -20 -20 -20 -20 -20 -20 -20 -20 -20 -20 -20 -20 -20 -20 -20 -20 -20 -20 -3 -20 -9 -20 -20 -20 -20 -20 -20 -20 -6 -9 -3 -6 10
-20 -20 -20 -19 -8 -20 -20 -14 -20 -20 -20 -20 -20 -20 -20 -20 -20 -20 -20 -20 -20 -20 -20 -20 -20 -20 -20 -20 -20 6 -12 -11 -19 -7 -11 -20 -20 -20 -20 -14 4 6 18 19
-20 -18 -15 -20 -20 -20 -10 -20 -20 -20 -20 -20 -20 -20 -20 -20 -20 -20 -20 -20 -20 -20 -20 -20 -20 -20 -20 -20 -17 -20 -20 -20 -20 -20 -20 2 -5 -4 -3 1 5 17 18 20
-17 -20 -20 -20 -13 -14 -20 -20 -20 -20 -20 -20 -20 -20 -20 -20 -20 -20 -20 -20 -20 -20 -20 -20 -20 -20 -20 -20 -20 -20 -14 -20 -19 -17 3 -9 -0 0 -3 8 8 6 13 14
-20 -20 2 3 -20 -20 -20 -20 -20 -20 -20 -20 -20 -20 -20 -20 -20 -20 -20 -20 -20 -20 -20 -20 -20 -20 -20 -20 -20 -20 -20 -20 -11 -19 -3 -5 -5 -1 -1 9 6 12 16 10
-20 4 -13 -20 -20 -20 -20 -20 -20 -20 -20 -20 -20 -20 -20 -20 -20 -20 -20 -20 -20 -20 -20 -20 -20 -20 -20 -20 -20 -20 -20 -20 -20 -20 -12 -20 2 6 4 10 16 10 -15 -20
2 -20 -20 -20 -20 -20 -20 -20 -20 -20 -20 -20 -20 -20 -20 -20 -20 -20 -20 -20 -20 -20 -20 -20 -20 -20 -20 -20 -20 -20 -18 -19 -20 -19 -20 -20 -19 2 -9 -19 -20 -20 -20 -20
-4 -20 -20 -20 -20 -20 -16 -20 -20 -20 -20 -20 -20 -20 -20 -20 -20 -20 -20 -20 -20 -20 -20 -20 -20 -20 -20 -20 -20 -20 -11 -20 -20 -20 -20 -18 -12 -20 -20 -20 -20 -20 -20 -20
2 -20 -20 -20 -20 -20 -20 -20 -20 -20 -20 -20 -20 -20 -20 -20 -20 -20 -20 -20 -20 -20 -20 -20 -20 -20 -20 -20 -20 -8 -20 -6 -16 -20 -20 -20 -20 -20 -20 -20 -20 -20 -20 -20
-14 -20 -20 -20 -20 -20 -20 -20 -20 -20 -20 -20 -20 -20 -20 -20 -20 -20 -20 -20 -20 -20 -20 -20 -20 -20 -20 -20 -20 -20 -20 -20 -14 -20 -20 -20 -20 -20 -20 -20 -20 -20 -20 -20
-20 -20 -20 -20 -20 -16 -20 -20 -20 -20 -20 -20 -20 -20 -20 -20 -20 -20 -20 -20 -20 -20 -20 -20 -20 -20 -20 -20 -20 -20 -20 -20 -20 -20 -2 -15 -20 -20 -20 -20 -20 -20 -20 -20
-20 -20 -20 -20 -20 -20 -20 -20 -20 -20 -20 -20 -20 -20 -20 -20 -20 -20 -20 -20 -20 -20 -20 -20 -20 -20 -20 -20 -20 -19 -19 -20 -20 -20 -20 -20 -20 -20 -20 -20 -20 -20 -20 -20
-20 -15 -18 -20 -20 -20 -20 -20 -15 -20 -20 -20 -20 -20 -20 -20 -20 -20 -20 -20 -20 -18 -20 -16 -18 -19 -18 -20 -19 -18 -20 -20 -20 -20 -20 -20 -20 -20 -20 -20 -20 -20 -20 -20
-20 -20 -20 -20 -20 -20 -20 -20 -20 -20 -20 -20 -20 -20 -20 -20 -20 -20 -20 -20 4 -3 14 -17 -8 -17 -19 -20 -20 -20 -20 -20 -20 -20 -19 -20 -20 -20 -20 -20 -20 -20 -20 -20
-20 -20 -20 -20 -20 -20 -20 -20 -20 -20 -20 -20 -20 -20 -20 -20 -20 -20 -20 -20 -20 -20 -20 -10 -20 -20 -20 -20 -20 -20 -20 -20 -9 -20 -20 -20 -20 -20 -20 -20 -20 -20 -20 -20
-20 -20 -20 -20 -20 -14 -17 -17 -20 -20 -20 -20 -20 -20 -20 -20 -20 -20 -20 -20 -20 -20 -20 -20 -20 -20 -20 -20 -20 -20 -20 -20 -20 -20 -20 -20 -20 -20 -20 -20 -20 -20 -20 -20
-20 -20 -20 -20 -20 -19 -20 -20 -20 -20 -20 -20 -20 -20 -20 -20 -20 -20 -20 -20 -20 -20 -20 -20 -20 -20 -20 -20 -20 -20 -20 -20 -20 -20 -20 -20 -20 -20 -20 -20 -20 -20 -20 -20
-20 -20 -19 -20 -20 -20 -20 -20 -20 -20 -20 -20 -20 -20 -20 -20 -13 -20 -20 -20 -20 -20 -20 -20 -20 -20 -20 -20 -20 -20 -20 -20 -20 -20 -20 -20 -20 -20 -20 -20 -20 -20 -20 -20
Wind_Speed
15 14 13 13 13 12 5 2 3 1 2 2 2 2 5 3 2 3 7 5 4 1 5 4 6 5 3 2 1 4 1 3 3 3 4 3 1 2 3 2 4 1 3 3
16 15 13 13 14 11 4 2 3 3 1 2 3 4 5 2 2 4 1 3 3 2 2 4 5 5 2 3 3 3 2 1 4 2 1 2 5 4 5 4 3 4 4 1
18 16 14 13 13 11 2 3 4 1 1 2 2 4 5 4 2 3 3 4 5 1 2 6 5 5 4 4 5 10 3 2 1 4 3 3 5 4 3 3 3 3 10 15
17 16 13 12 11 11 2 2 4 5 6 6 7 2 8 7 5 2 2 1 3 4 2 3 4 3 3 7 5 4 3 3 1 1 3 2 3 8 7 8 8 8 7 16
17 15 14 13 12 10 1 3 3 2 4 6 11 6 6 10 4 2 2 3 1 3 4 1 4 5 2 2 4 3 3 4 2 3 6 6 9 12 10 9 10 13 16 21
17 15 13 12 12 9 2 1 1 1 1 4 5 5 4 5 7 3 4 9 7 9 4 4 4 4 5 4 4 3 2 4 3 2 1 3 8 8 9 2 5 10 13 16
16 14 12 11 11 11 1 2 2 2 2 2 4 5 5 10 2 6 3 3 4 1 4 5 6 7 6 4 3 2 5 4 2 1 2 4 4 6 2 4 9 4 11 11
15 13 11 9 8 14 2 2 2 2 3 2 7 9 11 10 7 5 4 4 2 0 3 3 4 2 3 5 5 2 3 3 3 1 2 4 4 5 4 4 3 8 10 7
14 11 8 4 6 14 3 1 1 1 6 1 2 7 6 7 3 3 2 3 3 5 3 2 3 2 2 3 3 7 6 3 1 3 3 3 2 11 8 7 4 10 10 8
13 10 7 3 5 11 3 2 2 2 5 1 0 3 4 3 3 3 1 2 2 2 2 3 2 3 0 3 3 2 4 3 3 3 3 1 6 14 8 4 6 8 10 11
12 9 6 5 6 9 3 2 1 2 4 2 3 2 4 3 2 3 2 2 3 3 4 2 3 2 2 3 2 3 1 2 2 3 3 2 12 3 4 5 5 7 9 10
11 9 6 4 5 6 4 3 1 1 6 3 2 3 3 2 4 6 2 2 2 2 4 1 3 3 1 2 3 3 1 2 1 3 2 4 6 7 6 6 7 7 8 9
11 9 6 6 7 6 5 3 1 3 4 3 4 4 5 4 4 1 5 1 4 3 1 3 2 4 1 2 2 2 2 3 2 4 4 5 7 8 7 8 10 8 9 9
11 10 9 10 11 9 7 4 3 2 4 5 2 2 5 5 4 6 4 7 5 5 1 2 2 3 0 2 3 1 1 2 3 4 6 7 7 7 7 9 9 10 9 9
12 12 13 15 17 16 10 4 3 2 4 5 3 0 6 4 6 11 8 6 4 2 2 3 2 2 2 2 2 2 1 2 2 2 4 5 5 7 8 9 9 8 10 11
13 13 11 8 5 3 3 5 4 6 3 6 3 2 3 5 6 8 7 4 4 3 2 2 1 0 1 3 2 3 4 6 4 4 5 11 9 9 9 11 10 10 11 10
13 12 11 10 12 6 5 3 3 6 2 5 4 2 3 2 1 3 3 3 3 2 2 2 1 1 2 1 2 9 7 10 11 11 11 7 4 7 9 11 11 12 11 10
17 19 18 16 14 9 5 4 7 2 5 4 4 2 1 4 2 1 2 2 2 4 2 1 1 2 1 2 5 8 8 8 10 10 3 7 12 11 10 9 9 9 9 9
14 12 9 5 6 3 1 8 5 3 4 4 2 4 3 2 2 1 2 2 2 2 1 1 2 1 3 4 12 10 9 6 9 11 12 11 10 10 8 8 7 8 8 7
9 7 4 4 1 5 5 6 5 6 4 3 3 0 3 2 1 1 1 2 1 1 0 2 1 2 2 2 9 7 9 10 12 12 10 10 8 8 7 6 6 8 8 8
4 3 2 2 2 2 3 3 4 2 3 2 2 1 4 0 3 2 1 2 1 1 2 3 2 3 4 7 9 7 7 7 5 4 6 8 10 10 10 8 8 9 9 7
4 5 4 2 3 3 5 3 1 1 2 1 2 2 1 2 1 2 2 1 2 2 4 2 2 2 7 9 9 8 7 7 8 8 11 11 10 9 10 9 8 7 8 7
3 4 4 3 3 6 4 3 1 0 2 3 2 2 1 1 2 3 2 0 0 1 3 2 1 5 7 9 9 9 8 9 11 11 11 12 11 9 9 9 7 9 8 5
3 3 4 4 2 1 2 1 2 1 1 2 2 3 2 1 3 0 2 1 2 1 1 2 3 10 9 8 8 9 8 8 9 10 10 10 10 9 8 7 5 7 7 5
4 2 3 1 2 2 1 2 2 2 3 2 3 3 1 2 3 0 2 0 2 3 3 1 3 9 8 8 6 8 7 6 6 6 8 9 9 9 8 4 5 7 6 5
3 4 3 1 2 3 2 3 3 1 2 1 3 2 3 2 2 2 4 2 3 2 1 1 6 8 6 7 7 6 6 7 7 7 8 8 7 8 9 6 5 5 6 5
3 2 1 2 3 2 1 1 2 2 1 2 1 2 3 1 1 2 3 4 1 1 2 2 4 8 8 7 7 7 8 8 9 9 8 7 7 8 8 8 6 6 5 4
Wind_Direction
166 163 166 159 158 157 93 155 121 69 142 143 170 188 179 247 301 275 57 84 281 350 346 60 128 133 75 354 255 52 12 92 106 63 334 224 39 79 71 209 180 319 296 218
178 170 166 164 165 150 134 113 81 347 62 169 186 258 197 220 221 69 208 74 253 357 55 111 117 119 89 154 90 135 186 74 111 104 106 51 81 67 87 91 98 219 244 187
171 170 168 167 172 175 111 114 125 90 172 287 256 207 188 161 76 98 138 168 266 162 67 32 121 104 50 23 82 62 86 117 227 191 93 107 156 194 185 130 162 240 241 281
165 164 170 173 175 166 148 154 200 170 174 237 230 269 184 172 163 156 174 79 233 172 126 103 106 98 93 42 15 49 64 120 22 32 131 169 228 248 218 206 222 235 285 279
165 168 172 173 174 153 160 159 166 164 171 176 191 238 185 172 120 145 150 191 141 120 100 28 151 123 103 117 44 70 13 114 107 268 251 240 253 259 269 256 262 265 277 279
162 169 173 174 177 166 190 213 263 153 141 151 158 198 148 152 125 34 146 140 107 89 104 87 81 67 86 115 122 102 80 134 158 190 101 288 263 263 222 194 249 276 282 308
165 171 175 181 191 190 173 214 124 138 135 155 171 145 129 140 125 130 95 81 96 102 102 102 85 75 84 88 86 86 138 129 131 172 267 222 111 42 164 280 271 323 305 320
165 166 172 186 208 196 192 168 164 200 100 105 95 112 114 90 75 70 81 41 14 327 64 103 123 78 121 80 68 236 174 129 140 180 243 326 172 50 327 321 341 14 335 4
157 163 167 182 185 169 128 164 158 192 127 59 68 106 116 122 114 51 66 53 17 65 68 73 99 129 125 129 119 49 133 116 147 166 228 244 68 323 311 305 235 10 356 335
155 157 151 145 145 178 145 152 201 122 103 11 26 111 136 111 85 94 58 6 71 45 89 74 104 110 58 137 132 137 121 149 200 226 273 208 357 317 316 223 7 17 20 5
150 143 131 118 134 167 130 117 217 125 97 40 19 79 126 101 110 139 162 75 360 60 77 134 154 134 107 113 225 13 105 197 175 188 225 286 1 14 38 333 50 52 46 45
140 134 119 110 122 134 132 102 23 330 81 110 47 75 41 356 151 128 56 134 138 154 107 130 133 119 129 153 106 32 77 328 108 340 68 46 46 64 40 46 68 62 73 67
130 122 100 98 91 121 114 115 3 65 94 64 48 12 352 31 38 173 123 177 139 122 136 129 111 105 179 105 94 149 59 4 115 184 108 79 102 90 79 76 82 82 83 91
128 117 97 88 88 105 95 79 330 62 108 97 21 347 33 340 39 57 71 115 80 98 113 94 98 105 294 107 118 130 132 337 90 94 128 122 93 81 98 96 94 89 82 94
129 115 106 98 90 87 87 94 38 36 108 127 118 263 7 24 59 65 62 82 93 70 81 61 77 99 134 79 97 122 107 167 194 138 94 86 74 100 99 98 95 102 102 92
128 120 113 91 57 63 64 44 1 18 32 100 103 291 11 34 60 69 59 59 69 71 85 89 109 211 112 133 143 161 112 88 136 126 92 100 101 88 97 96 90 90 94 95
113 106 95 89 79 74 65 106 263 353 45 89 93 79 353 316 94 48 44 41 60 59 92 78 107 101 114 107 179 166 134 124 117 118 113 115 164 121 113 105 102 96 92 87
109 106 105 99 86 85 39 358 23 60 85 66 105 91 112 360 64 79 356 65 39 32 79 114 133 132 155 204 137 140 133 135 146 159 89 117 124 120 116 115 115 104 95 94
108 108 111 63 38 49 315 329 30 35 97 107 88 133 178 19 52 67 67 22 62 356 74 191 178 133 220 183 158 165 156 166 143 128 123 130 130 128 124 116 108 102 97 93
82 46 43 44 21 333 354 10 23 20 357 36 85 259 113 100 348 73 117 22 96 235 233 112 180 249 109 222 166 164 161 147 139 133 151 149 145 143 133 116 111 108 103 93
46 63 69 230 291 38 39 54 52 331 57 35 80 92 125 161 122 136 232 157 177 246 172 185 212 235 159 134 119 109 125 149 145 120 140 152 153 144 131 119 110 110 113 111
151 119 103 62 37 38 68 51 78 29 96 137 116 140 108 120 100 106 173 207 181 253 138 187 231 89 130 118 110 99 101 112 110 110 113 114 116 120 118 117 110 98 102 100
47 60 70 47 1 55 99 153 135 167 172 174 158 110 75 107 65 83 115 102 73 199 212 227 82 141 131 128 122 105 98 101 100 98 98 102 99 93 109 110 105 108 97 91
70 66 79 96 74 229 185 177 155 205 143 145 104 85 82 79 72 78 180 246 264 345 280 251 168 169 150 142 131 125 123 111 112 110 108 101 101 92 77 91 118 125 116 127
72 63 92 141 218 196 184 212 136 79 121 124 99 77 72 43 89 159 151 162 246 225 233 233 168 154 141 133 129 125 126 126 118 119 110 112 112 110 115 118 117 108 115 123
64 50 89 340 67 42 51 48 67 47 114 121 53 88 59 32 121 156 222 171 227 247 205 141 140 136 128 134 135 132 131 127 125 117 119 122 129 129 122 117 117 137 148 144
51 26 28 98 97 95 79 67 34 331 36 99 118 86 196 174 189 224 202 214 226 161 143 173 146 152 149 137 127 130 130 128 129 129 132 126 123 128 137 135 153 161 160 169